Regional Weather Roundup
Issued by NWS

Home | Current Version | Previous Version | Text Only | Print | Product List | Glossary Off
Versions: 1 2 3 4 5 6 7 8 9 10 11 12 13 14 15 16 17 18 19 20 21 22 23 24 25 26 27 28 29 30 31 32 33 34 35 36 37 38 39 40 41 42 43 44 45 46 47 48 49 50

000
ASUS43 KMKX 242100
RWRWI

WISCONSIN REGIONAL WEATHER ROUNDUP
NATIONAL WEATHER SERVICE MILWAUKEE/SULLIVAN WI
400 PM CDT MON JUL 24 2017

NOTE: "FAIR" INDICATES FEW OR NO CLOUDS BELOW 12,000 FEET WITH NO
SIGNIFICANT WEATHER AND/OR OBSTRUCTIONS TO VISIBILITY.

WIZ001-002-006>008-014>016-023>028-242200-
NORTHWEST WISCONSIN

CITY           SKY/WX    TMP DP  RH WIND       PRES   REMARKS
SUPERIOR ARPT  NOT AVBL
ASHLAND        FAIR      74  60  61 N10       30.06S
HAYWARD        FAIR      74  53  48 VRB3      30.07S
SIREN          FAIR      77  55  46 SE7       30.05F
CUMBERLAND     FAIR      72  54  53 S7        30.08S
RICE LAKE      FAIR      74  55  50 S6        30.09S
CHETEK         FAIR      74  58  57 S3        30.07F
LADYSMITH      FAIR      76  56  49 CALM      30.10R
EAU CLAIRE     NOT AVBL
MENOMONIE      FAIR      75  58  56 SE7       30.06F
NEW RICHMOND   FAIR      76  58  53 S9        30.05F
OSCEOLA        FAIR      77  59  53 SE7       30.06F
$$

WIZ003>005-009-010-017-018-242200-
NORTH CENTRAL WISCONSIN

CITY           SKY/WX    TMP DP  RH WIND       PRES   REMARKS
MANITOWISH WTR FAIR      75  52  44 S3        30.09S
ARBOR VITAE    FAIR      77  53  43 SW8       30.09R
WOODRUFF       FAIR      77  53  43 SW8       30.09R
RHINELANDER    FAIR      77  51  40 VRB3      30.10S
EAGLE RIVER    FAIR      75  47  36 E7        30.08F
LAND O LAKES   FAIR      77  47  34 E3        30.10F
PHILLIPS       FAIR      74  55  50 SE6       30.08F
TOMAHAWK         N/A     75  52  45 CALM      30.09S
MEDFORD        PTSUNNY   73  56  54 S3        30.09S
MERRILL        FAIR      75  55  49 CALM      30.09S
$$

WIZ029-030-035-036-043>047-242200-
CENTRAL WISCONSIN

CITY           SKY/WX    TMP DP  RH WIND       PRES   REMARKS
WAUSAU         FAIR      76  52  43 VRB6      30.07S
MOSINEE        MOSUNNY   75  54  46 SE6       30.10S
MARSHFIELD     FAIR      75  55  49 VRB6      30.08S
STEVENS POINT  FAIR      73  53  49 SE6       30.09S
WAUPACA        FAIR      79  52  39 E7        30.09S
WAUTOMA        FAIR      75  56  51 VRB7      30.08S
WISC RAPIDS    FAIR      77  56  48 SE9       30.09S
CAMP DOUGLAS   NOT AVBL
$$

WIZ011>013-019>022-031-037>040-048>050-242200-
NORTHEAST WISCONSIN

CITY           SKY/WX    TMP DP  RH WIND       PRES   REMARKS
ANTIGO         FAIR      74  53  48 S5        30.10S
SHAWANO        FAIR      77  54  44 CALM      30.08F
OCONTO         FAIR      73  53  50 E3        30.08F
STURGEON BAY     N/A     72  55  55 VRB6      30.09S
GREEN BAY      FAIR      74  58  57 VRB5      30.08F
MANITOWOC      NOT AVBL
APPLETON       MOSUNNY   73  52  46 CALM      30.08S
CLINTONVILLE   FAIR     N/A N/A N/A SE9       30.09S
OSHKOSH        FAIR      73  55  53 CALM      30.07F
$$

WIZ032>034-041-042-053>061-242200-
SOUTHWEST WISCONSIN

CITY           SKY/WX    TMP DP  RH WIND       PRES   REMARKS
LA CROSSE      FAIR      76  59  55 CALM      30.06S
SPARTA         FAIR      74  58  57 CALM      30.07F
VIROQUA        FAIR      72  61  67 CALM      30.08S
BOSCOBEL       PTSUNNY   74  59  59 NE5       30.07S
PRAIRIE DU CHI PTSUNNY   75  58  55 E5        30.05S
PLATTEVILLE    FAIR      74  63  69 NE9       30.07F
$$

WIZ056-057-062-063-064-067-068-242200-
SOUTH CENTRAL WISCONSIN

CITY           SKY/WX    TMP DP  RH WIND       PRES   REMARKS
REEDSBURG      PTSUNNY   75  59  58 E7        30.07S
BARABOO/DELLS  FAIR      76  53  44 NE5       30.08S
LONE ROCK      FAIR      73  58  59 SE6       30.07S
MINERAL POINT  PTSUNNY   72  61  68 E3        30.09S
MADISON        PTSUNNY   73  57  57 E5        30.06F
MIDDLETON      FAIR      76  57  51 E8        30.08S
WATERTOWN      FAIR      73  58  59 E7        30.07S
MONROE         PTSUNNY   72  55  56 E5        30.07S
JANESVILLE     PTSUNNY   75  57  53 E9        30.06S
$$

WIZ051-052-058>065-066-070>072-242200-
SOUTHEAST WISCONSIN

CITY           SKY/WX    TMP DP  RH WIND       PRES   REMARKS
MILWAUKEE      FAIR      70  59  68 NE13      30.08S
WAUKESHA       SUNNY     70  54  56 NE8       30.09F
MILWAUKEE/TIMM MOSUNNY   70  52  52 NE7       30.09S
RACINE         FAIR      69  61  75 N12       30.09F
KENOSHA        PTSUNNY   72  58  61 VRB7      30.07F
FOND DU LAC    FAIR      75  52  44 NE9       30.08S
SHEBOYGAN      FAIR      71  55  56 NE10      30.09S
WEST BEND      FAIR      70  52  52 E9        30.08S
JUNEAU         FAIR      73  55  51 E8        30.09S
$$

LSZ147-162-242200-
LAKE SUPERIOR

STATION/POSITION TIME  TEMP    WIND        PRES    WAVE
                       AIR SEA DIR/SP/G            HT/PER
                 (UTC) (F)     (DEG/KT/KT) (MB)    (FT/S)
W MID LAKE BUOY  1950   54 53  250/  2/  2 1018.7F   0
DEVILS ISLAND    2000   59      60/  6/  7 1018.5F
SAXON HARBOR     2040   65      30/  9/ 10 1017.9S
$$

LMZ867-665-643>646-242200-
LAKE MICHIGAN

STATION/POSITION TIME  TEMP    WIND        PRES    WAVE
                       AIR SEA DIR/SP/G            HT/PER
                 (UTC) (F)     (DEG/KT/KT) (MB)    (FT/S)
CHAMBERS ISLAND  2040   70      60/  8/  9 1017.9S
S GREEN BAY BUOY 2030   69 72   50/  8/ 10 1018.4F
N MID LAKE BUOY  1950   66 67  100/  6/  8 1019.0S   1/ 4
NORTHPORT PIER   2040   68     130/  6/  7 1018.3S
KEWAUNEE LAKESHO 2030   69      40/  5/ 10 1018.2F
SHEBOYGAN LAKESH 2000   65      20/ 12/ 14 1018.5S
PORT WASHINGTON  2030   70      50/ 12/ 14 1019.3F
ATWATER BUOY     1909   65 68   30/ 14/ 17 1018.7
MILWAUKEE LAKESH 2020   65      30/ 13/ 15   N/A
S MID LAKE BUOY  1950   67 70   10/ 12/ 14 1017.6F   4/ 7
KENOSHA   LAKESH 2000   66      20/ 14/ 17 1018.3
$$

TC  - TEMPERATURE IN CELSIUS
VSB - VISIBILITY IN STATUTE MILES
WCI - WIND CHILL INDEX
HX  - HEAT INDEX





USA.gov is the U.S. government's official web portal to all federal, state and local government web resources and services.